When you browse on this site, cookies collect data to enhance your experience and personalize the content and advertising you see.
Visit our Privacy Policy to learn more. By continuing to use the site, you agree to this use of cookies and data.
  • In Switzerland
  • List of Countries
  • For 7 days
  • Water Temperature
  • Weather Map
  • Weather Widgets
  • user-avatar
    Login

    Hourly Weather Netrizovo

    Today, 18 August, Sunday

    Time Temperature Precipitation Wind Pressure Humidity
    00:00 +13°C° 0.8 mm 3 mps 739 mmHg 97%
    01:00 +14°C° 0.8 mm 3 mps 739 mmHg 98%
    02:00 +15°C° 0.8 mm 2 mps 739 mmHg 99%
    03:00 +14°C° 1.1 mm 3 mps 739 mmHg 98%
    04:00 +14°C° 1.1 mm 3 mps 738 mmHg 98%
    05:00 +14°C° 1.1 mm 3 mps 738 mmHg 98%
    06:00 +14°C° 1.4 mm 3 mps 738 mmHg 98%
    07:00 +14°C° 1.4 mm 3 mps 738 mmHg 98%
    08:00 +14°C° 1.4 mm 3 mps 738 mmHg 97%
    09:00 +14°C° 1.5 mm 3 mps 738 mmHg 97%
    10:00 +14°C° 1.5 mm 3 mps 738 mmHg 97%
    11:00 +14°C° 1.5 mm 3 mps 739 mmHg 96%
    12:00 +14°C° 0.4 mm 3 mps 739 mmHg 95%
    13:00 +16°C° 0.4 mm 2 mps 739 mmHg 94%
    14:00 +16°C° 0.4 mm 2 mps 739 mmHg 94%
    15:00 +17°C° 0.1 mm 2 mps 740 mmHg 92%
    16:00 +17°C° 0.1 mm 2 mps 740 mmHg 91%
    17:00 +17°C° 0.1 mm 2 mps 740 mmHg 90%
    18:00 +17°C° 0 mm 2 mps 740 mmHg 91%
    19:00 +16°C° 0 mm 1 mps 741 mmHg 93%
    20:00 +15°C° 0 mm 1 mps 741 mmHg 94%
    21:00 +15°C° 0 mm 1 mps 741 mmHg 94%
    22:00 +14°C° 0 mm 1 mps 741 mmHg 95%
    23:00 +14°C° 0 mm 2 mps 741 mmHg 95%

    Tomorrow, 19 August, Monday

    Time Temperature Precipitation Wind Pressure Humidity
    00:00 +14°C° 0 mm 2 mps 742 mmHg 95%
    01:00 +14°C° 0 mm 2 mps 742 mmHg 95%
    02:00 +13°C° 0 mm 2 mps 742 mmHg 95%
    03:00 +13°C° 0 mm 2 mps 742 mmHg 95%
    04:00 +13°C° 0 mm 2 mps 742 mmHg 94%
    05:00 +13°C° 0 mm 1 mps 743 mmHg 94%
    06:00 +14°C° 0 mm 2 mps 743 mmHg 91%
    07:00 +16°C° 0 mm 2 mps 743 mmHg 89%
    08:00 +18°C° 0 mm 2 mps 743 mmHg 86%
    09:00 +19°C° 0 mm 3 mps 744 mmHg 81%
    10:00 +21°C° 0 mm 3 mps 744 mmHg 75%
    11:00 +22°C° 0 mm 4 mps 744 mmHg 70%
    12:00 +23°C° 0 mm 4 mps 744 mmHg 69%
    13:00 +25°C° 0 mm 4 mps 744 mmHg 68%
    14:00 +25°C° 0 mm 4 mps 744 mmHg 66%
    15:00 +25°C° 0 mm 4 mps 744 mmHg 70%
    16:00 +25°C° 0 mm 3 mps 744 mmHg 73%
    17:00 +24°C° 0 mm 3 mps 744 mmHg 76%
    18:00 +22°C° 0 mm 3 mps 744 mmHg 81%
    19:00 +20°C° 0 mm 3 mps 744 mmHg 85%
    20:00 +19°C° 0 mm 3 mps 744 mmHg 90%
    21:00 +19°C° 0 mm 3 mps 744 mmHg 90%
    22:00 +18°C° 0 mm 3 mps 745 mmHg 91%
    23:00 +18°C° 0 mm 3 mps 745 mmHg 91%

    Day after tomorrow, 20 August, Tuesday

    Time Temperature Precipitation Wind Pressure Humidity
    00:00 +17°C° 0 mm 3 mps 745 mmHg 92%
    01:00 +17°C° 0 mm 3 mps 745 mmHg 93%
    02:00 +17°C° 0 mm 2 mps 745 mmHg 95%
    03:00 +17°C° 0.3 mm 2 mps 745 mmHg 95%
    04:00 +17°C° 0.3 mm 2 mps 745 mmHg 96%
    05:00 +17°C° 0.3 mm 2 mps 745 mmHg 96%
    06:00 +18°C° 0.2 mm 2 mps 746 mmHg 95%
    07:00 +19°C° 0.2 mm 2 mps 746 mmHg 93%
    08:00 +20°C° 0.2 mm 2 mps 746 mmHg 91%
    09:00 +23°C° 0.1 mm 2 mps 746 mmHg 87%
    10:00 +24°C° 0.1 mm 2 mps 747 mmHg 84%
    11:00 +25°C° 0.1 mm 2 mps 747 mmHg 80%
    12:00 +25°C° 0.1 mm 2 mps 747 mmHg 79%
    13:00 +25°C° 0.1 mm 2 mps 747 mmHg 79%
    14:00 +26°C° 0.1 mm 2 mps 747 mmHg 78%
    15:00 +25°C° 0.7 mm 2 mps 747 mmHg 81%
    16:00 +25°C° 0.7 mm 2 mps 747 mmHg 84%
    17:00 +25°C° 0.7 mm 2 mps 747 mmHg 87%
    18:00 +23°C° 0.6 mm 2 mps 747 mmHg 89%
    19:00 +22°C° 0.6 mm 1 mps 747 mmHg 91%
    20:00 +21°C° 0.6 mm 1 mps 747 mmHg 93%
    21:00 +20°C° 0.1 mm 1 mps 747 mmHg 93%
    22:00 +20°C° 0.1 mm 1 mps 747 mmHg 94%
    23:00 +17°C° 0.1 mm 0 mps 747 mmHg 94%

    21 August, Wednesday

    Time Temperature Precipitation Wind Pressure Humidity
    00:00 +19°C° 0 mm 1 mps 748 mmHg 95%
    01:00 +19°C° 0 mm 1 mps 748 mmHg 95%
    02:00 +19°C° 0 mm 1 mps 748 mmHg 95%
    03:00 +18°C° 0 mm 1 mps 748 mmHg 95%
    04:00 +18°C° 0 mm 1 mps 748 mmHg 95%
    05:00 +18°C° 0 mm 1 mps 748 mmHg 95%
    06:00 +19°C° 0 mm 1 mps 748 mmHg 92%
    07:00 +21°C° 0 mm 1 mps 748 mmHg 89%
    08:00 +22°C° 0 mm 1 mps 748 mmHg 87%
    09:00 +23°C° 0 mm 1 mps 748 mmHg 82%
    10:00 +25°C° 0 mm 1 mps 748 mmHg 77%
    11:00 +26°C° 0 mm 1 mps 748 mmHg 72%
    12:00 +26°C° 0.9 mm 1 mps 747 mmHg 73%
    13:00 +26°C° 0.9 mm 1 mps 747 mmHg 73%
    14:00 +26°C° 0.9 mm 1 mps 747 mmHg 74%
    15:00 +26°C° 1.2 mm 1 mps 747 mmHg 78%
    16:00 +26°C° 1.2 mm 1 mps 746 mmHg 81%
    17:00 +25°C° 1.2 mm 2 mps 746 mmHg 85%
    18:00 +24°C° 0.2 mm 2 mps 746 mmHg 87%
    19:00 +23°C° 0.2 mm 2 mps 745 mmHg 89%
    20:00 +20°C° 0.2 mm 2 mps 745 mmHg 90%
    21:00 +20°C° 1 mm 2 mps 745 mmHg 92%
    22:00 +20°C° 1 mm 2 mps 745 mmHg 94%
    23:00 +19°C° 1 mm 2 mps 744 mmHg 95%

    22 August, Thursday

    Time Temperature Precipitation Wind Pressure Humidity
    00:00 +19°C° 0.5 mm 2 mps 744 mmHg 95%
    01:00 +19°C° 0.5 mm 2 mps 745 mmHg 95%
    02:00 +19°C° 0.5 mm 2 mps 745 mmHg 96%
    03:00 +18°C° 0.3 mm 3 mps 745 mmHg 95%
    04:00 +17°C° 0.3 mm 4 mps 745 mmHg 95%
    05:00 +15°C° 0.3 mm 5 mps 745 mmHg 95%
    06:00 +15°C° 0.1 mm 5 mps 745 mmHg 94%
    07:00 +15°C° 0.1 mm 5 mps 746 mmHg 93%
    08:00 +15°C° 0.1 mm 5 mps 746 mmHg 91%
    09:00 +16°C° 0 mm 5 mps 747 mmHg 86%
    10:00 +17°C° 0 mm 5 mps 747 mmHg 80%
    11:00 +19°C° 0 mm 5 mps 747 mmHg 75%
    12:00 +20°C° 0 mm 4 mps 747 mmHg 70%
    13:00 +21°C° 0 mm 4 mps 748 mmHg 66%
    14:00 +22°C° 0 mm 4 mps 748 mmHg 62%
    15:00 +22°C° 0 mm 3 mps 748 mmHg 66%
    16:00 +21°C° 0 mm 3 mps 748 mmHg 69%
    17:00 +21°C° 0 mm 2 mps 748 mmHg 73%
    18:00 +19°C° 0 mm 2 mps 748 mmHg 76%
    19:00 +18°C° 0 mm 2 mps 748 mmHg 79%
    20:00 +16°C° 0 mm 2 mps 748 mmHg 82%
    21:00 +15°C° 0 mm 2 mps 748 mmHg 84%
    22:00 +15°C° 0 mm 2 mps 749 mmHg 85%
    23:00 +14°C° 0 mm 2 mps 749 mmHg 87%

    23 August, Friday

    Time Temperature Precipitation Wind Pressure Humidity
    00:00 +13°C° 0 mm 2 mps 749 mmHg 89%
    01:00 +13°C° 0 mm 2 mps 749 mmHg 91%
    02:00 +12°C° 0 mm 2 mps 749 mmHg 93%
    03:00 +12°C° 0 mm 2 mps 749 mmHg 93%
    04:00 +12°C° 0 mm 2 mps 749 mmHg 93%
    05:00 +10°C° 0 mm 2 mps 749 mmHg 93%
    06:00 +13°C° 0 mm 2 mps 749 mmHg 88%
    07:00 +15°C° 0 mm 2 mps 749 mmHg 82%
    08:00 +16°C° 0 mm 2 mps 749 mmHg 77%
    09:00 +17°C° 0 mm 2 mps 749 mmHg 72%
    10:00 +18°C° 0 mm 2 mps 749 mmHg 67%
    11:00 +20°C° 0 mm 2 mps 749 mmHg 62%
    12:00 +20°C° 0 mm 2 mps 749 mmHg 61%
    13:00 +20°C° 0 mm 2 mps 749 mmHg 61%
    14:00 +20°C° 0 mm 2 mps 749 mmHg 61%
    15:00 +20°C° 0.1 mm 2 mps 749 mmHg 66%
    16:00 +19°C° 0.1 mm 2 mps 749 mmHg 72%
    17:00 +18°C° 0.1 mm 2 mps 748 mmHg 78%
    18:00 +17°C° 0.1 mm 2 mps 748 mmHg 81%
    19:00 +15°C° 0.1 mm 2 mps 748 mmHg 85%
    20:00 +14°C° 0.1 mm 2 mps 748 mmHg 88%
    21:00 +13°C° 0 mm 2 mps 749 mmHg 90%
    22:00 +13°C° 0 mm 2 mps 749 mmHg 92%
    23:00 +12°C° 0 mm 2 mps 749 mmHg 94%
    Show more